TimePDT,TemperatureF,Dew PointF,Humidity,Sea Level PressureIn,VisibilityMPH,Wind Direction,Wind SpeedMPH,Gust SpeedMPH,PrecipitationIn,Events,Conditions,WindDirDegrees,DateUTC
12:55 AM,60.1,28.9,31,29.88,10.0,East,6.9,-,N/A,,Clear,80,2013-06-13 07:55:00
1:55 AM,57.9,28.0,32,29.89,10.0,NNE,8.1,-,N/A,,Clear,20,2013-06-13 08:55:00
2:55 AM,55.9,28.0,34,29.91,10.0,North,5.8,-,N/A,,Clear,360,2013-06-13 09:55:00
3:55 AM,55.0,25.0,31,29.91,10.0,Calm,Calm,-,N/A,,Clear,0,2013-06-13 10:55:00
4:55 AM,53.1,25.0,34,29.94,10.0,WNW,4.6,-,N/A,,Clear,290,2013-06-13 11:55:00
5:55 AM,51.1,23.0,33,29.95,10.0,West,6.9,-,N/A,,Partly Cloudy,280,2013-06-13 12:55:00
6:55 AM,53.1,25.0,34,29.96,10.0,Calm,Calm,-,N/A,,Clear,0,2013-06-13 13:55:00
7:55 AM,55.0,24.1,30,29.97,10.0,Calm,Calm,-,N/A,,Clear,0,2013-06-13 14:55:00
8:55 AM,60.1,27.0,28,29.98,10.0,Calm,Calm,-,N/A,,Clear,0,2013-06-13 15:55:00
9:55 AM,64.0,21.9,20,29.98,10.0,ESE,3.5,-,N/A,,Partly Cloudy,110,2013-06-13 16:55:00
10:55 AM,72.0,12.0,10,29.96,10.0,Variable,6.9,-,N/A,,Partly Cloudy,0,2013-06-13 17:55:00
11:55 AM,73.9,14.0,10,29.95,10.0,West,12.7,17.3,N/A,,Partly Cloudy,270,2013-06-13 18:55:00
12:55 PM,75.9,12.0,9,29.94,10.0,NW,15.0,24.2,N/A,,Partly Cloudy,310,2013-06-13 19:55:00
1:55 PM,78.1,12.0,8,29.92,10.0,West,17.3,34.5,N/A,,Partly Cloudy,270,2013-06-13 20:55:00
2:55 PM,78.1,12.0,8,29.94,10.0,West,16.1,31.1,N/A,,Partly Cloudy,270,2013-06-13 21:55:00
3:55 PM,78.1,16.0,10,29.93,10.0,West,19.6,26.5,N/A,,Partly Cloudy,280,2013-06-13 22:55:00
4:55 PM,77.0,18.0,11,29.94,10.0,WNW,18.4,28.8,N/A,,Partly Cloudy,290,2013-06-13 23:55:00
5:55 PM,75.0,24.1,15,29.95,10.0,West,16.1,20.7,N/A,,Partly Cloudy,280,2013-06-14 00:55:00
6:55 PM,73.0,21.9,15,29.97,10.0,West,12.7,21.9,N/A,,Partly Cloudy,270,2013-06-14 01:55:00
7:55 PM,71.1,19.0,14,30.00,10.0,NNW,11.5,-,N/A,,Partly Cloudy,330,2013-06-14 02:55:00
8:55 PM,66.9,21.9,18,30.01,10.0,NNW,10.4,-,N/A,,Clear,340,2013-06-14 03:55:00
9:55 PM,64.0,23.0,21,30.04,10.0,WNW,11.5,-,N/A,,Clear,290,2013-06-14 04:55:00
10:55 PM,62.1,25.0,24,30.06,10.0,NNE,8.1,-,N/A,,Clear,30,2013-06-14 05:55:00
11:55 PM,60.1,28.0,30,30.07,10.0,NNE,9.2,-,N/A,,Clear,20,2013-06-14 06:55:00